1st Responders/1st Detectors/Storm Spotters Weather Summary for Scott County, KY

Forecast Maps


Reg. NEXRAD Animation


National Fire Danger: Day 1 & 2 Map

Current NWS Watch/Warnings

SPC Convective Day 1 Outlook


Day 2 Outlook

(Click images to enlarge|Page will refresh every 5 minutes)
UK Ag. Weather Center Desktop Severe Weather Service[HERE]
Scott County, KY Hazardous Weather Outlook Webcast
(9 AM to 9 PM Mon-Fri)
[Fast]
[Dial-up]


UKAWC 1st Detectors/1st Responders Precision Weather Forecast For SCOTT County, Kentucky
(based on the NWS County Digital Forecast)

ISSUED AT 14:00 UTC ON TUESDAY DEC 18 2018
DAY TUESDAY
EDT 3HR 11A NOON 1P 2P 3P 4P 5P 6P 7P
MAX/MIN -- -- -- -- -- -- -- -- 45°
TEMP 34° 38° 40° 43° 45° 45° 43° 41° 38°
SKY COVER 28% 27% 25% 24% 23% 23% 23% 28% 33%
Clouds
DEW PT 29° 29° 29° 27° 27° 27° 27° 29° 29°
RH 81% 69% 62% 54% 50% 50% 53% 59% 66%
POP 12HR -- -- -- -- -- -- -- -- --
RAIN/SNOW (liq.equ) -- -- -- 0.00in -- -- -- -- --
SNOWFALL -- -- -- 0in -- -- -- -- --
WIND SPEED(MPH) 2 2 2 2 2 2 5 2 2
WIND Gust(MPH) 2 2 2 7 7 7 8 7 7
WIND DIR E E E E E E E E E
DEW Frost Frost -- -- -- -- -- -- Frost
HeatIndex 31 35 38 41 43 43 41 40 36
Rain Showers -- -- -- -- -- -- -- -- --
WIND CHILL -- -- -- -- -- -- 40° -- --
SPRAY COND
DRY COND
LIVESTOCK COLDSTRESS



DAY WEDNESDAY THURSDAY FRIDAY SATURDAY SUNDAY MONDAY
EDT 6HR 8P 9P 10P 11P MIDN 1A 2A 3A 4A 5A 6A 7A 8A 9A 10A 11A NOON 1P 2P 3P 4P 5P 6P 7P 8P 9P 10P 11P 2A 5A 8A 11A 2P 5P 8P 2A 8A 2P 8P 2A 8A 2P 8P 2A 8A 2P 8P 2A 8A 2P 8P
MAX/MIN -- -- -- -- -- -- -- -- -- -- -- -- 29° -- -- -- -- -- -- -- -- -- -- 56° -- -- -- -- -- -- 40° -- -- 50° -- -- 40° 45° -- -- 29° 40° -- -- 29° 45° -- -- 31° 43° --
TEMP 36° 34° 34° 34° 32° 31° 31° 31° 31° 31° 29° 29° 31° 32° 36° 40° 45° 49° 52° 54° 56° 54° 52° 49° 45° 43° 43° 43° 43° 40° 40° 45° 50° 49° 47° 43° 40° 40° 40° 34° 29° 38° 36° 31° 29° 43° 40° 32° 31° 40° 36°
SKY COVER 25% 25% 25% 25% 25% 25% 25% 25% 25% 25% 35% 39% 39% 33% 27% 21% 20% 20% 19% 26% 32% 39% 46% 53% 60% 65% 74% 79% 86% 89% 96% 92% 100% 100% 100% 100% 100% 98% 96% 78% 70% 45% 40% 45% 52% 57% 72% 50% 48% 41% 37%
Clouds
DEW PT 27° 27° 27° 27° 27° 27° 27° 27° 27° 25° 25° 25° 27° 29° 31° 32° 34° 34° 34° 36° 36° 36° 36° 36° 34° 36° 36° 36° 38° 38° 38° 40° 43° 43° 43° 43° 40° 38° 34° 29° 25° 27° 27° 27° 27° 31° 32° 31° 27° 27° 27°
RH 69% 75% 78% 78% 81% 81% 81% 85% 84% 78% 84% 84% 84% 85% 79% 73% 64% 53% 49% 48% 48% 50% 55% 60% 67% 73% 75% 78% 82% 92% 92% 85% 77% 79% 85% 100% 96% 92% 78% 78% 85% 61% 72% 85% 88% 62% 73% 92% 88% 59% 72%
POP 12HR 0% -- -- -- -- -- -- -- -- -- -- -- 0% -- -- -- -- -- -- -- -- -- -- -- 3% -- -- -- -- -- 41% -- -- -- 80% -- 93% -- 90% -- 35% -- 2% -- 3% -- 30% -- 19% -- 4%
RAIN/SNOW (liq.equ) 0.00in -- -- -- -- -- 0.00in -- -- -- -- -- 0.00in -- -- -- -- -- 0.00in -- -- -- -- -- 0.00in -- -- -- 0.00in -- 0.05in -- 0.08in -- 0.13in -- -- -- -- -- -- -- -- -- -- -- -- -- -- -- --
SNOWFALL 0in -- -- -- -- -- 0in -- -- -- -- -- 0in -- -- -- -- -- 0in -- -- -- -- -- 0in -- -- -- 0in -- 0in -- 0in -- 0in -- -- -- -- -- -- -- -- -- -- -- -- -- -- -- --
WIND SPEED(MPH) 2 2 2 2 2 2 2 2 2 2 2 2 5 5 6 6 7 7 7 7 7 7 7 7 7 7 7 7 7 6 6 5 6 5 7 7 14 15 15 10 9 9 7 6 7 8 7 7 7 6 5
WIND DIR E E E E E SE SE SE SE SE SE S S S S S S SW SW SW S S S S S S S S S S SE SE E E NE N N NW NW W W W SW SW SW SW W W W W SW
HeatIndex 34 32 31 31 29 28 28 27 27 27 26 26 26 28 32 37 41 49 52 54 56 54 52 49 41 40 38 38 38 37 37 42 50 49 47 38 33 32 32 26 21 32 30 26 23 38 35 26 24 37 32
Rain Showers -- -- -- -- -- -- -- -- -- -- -- -- -- -- -- -- -- -- -- -- -- -- -- -- -- -- -- -- Chance Chance Likely Likely Definite Definite Definite Definite Definite Definite Chance -- -- -- -- -- -- Chance Slight Chance -- -- -- --
WIND CHILL -- -- -- -- -- -- -- -- -- -- -- -- 26° 28° 31° 36° 41° -- -- -- -- -- -- -- 41° 39° 39° 39° 39° 36° 36° 43° -- -- -- 39° 32° 32° 32° 26° 21° 32° 30° 25° 22° 38° 35° 26° 25° 36° 32°
SPRAY COND
DRY COND
LIVESTOCK COLDSTRESS

Click on individual weather variable above in left-hand column (ie., TEMP, RH, QPF 12HR) to view state forecast maps






NWS 48 Hr. Forecast Maps,

Regional Hourly Observations For SCOTT County, Kentucky
Issued at 1200 PM EST TUE DEC 18 2018
...CENTRAL KENTUCKY...
  
CITY           SKY/WX    TMP DP  RH WIND       PRES   REMARKS
MT STERLING*     N/A     41  32  70 SE3       30.24F                  
FLEMING/MASON*   N/A     38  31  76 SE3       30.24F                  
DANVILLE*        N/A     37  32  81 E3        30.23F                  
LEXINGTON        N/A     41  31  67 VRB3      30.22F                  
FRANKFORT        N/A     40  32  73 VRB3      30.22F                  
LOUISVILLE     PTSUNNY   43  31  62 CALM      30.24F                  
LEBANON*         N/A     41  37  87 SE3       30.23F                  
GLASGOW*         N/A     46  32  60 E5        30.21F                  
BOWLING GREEN    N/A     46  33  60 E8        30.20F                  


Current NOWCAST not available:
Nowcasts are not issued routinely during fair weather. Only when
precipitation or other significant weather is occuring in this county will these
forecasts be issued. Currently, there is no short term forecast in effect.


Fire Weather Forecast For SCOTT County, KY
Provided by the National Weather Service:

Issued at: Tue Dec 18 12:05:01 EST 2018


                      Today        Tonight      Wed          

CLOUD COVER           MClear       MClear       PCldy        
PRECIP TYPE           None         None         None         
CHANCE PRECIP (%)     0            0            0            
TEMP (24H TREND)      45 (-6)      29 (+1)      56           
RH % (24H TREND)      48 (-1)      90 (-1)      46           
20FTWND-VAL/AM(MPH)   Lgt/Var                   Lgt/Var      
20FTWND-RDG/PM(MPH)   Lgt/Var      Lgt/Var      S  5         
PRECIP AMOUNT         0.00         0.00         0.00         
MIXING HGT(FT-AGL/MSL)2197                      2124         
TRANSPORT WND (MPH)   E  5                      SW 17        
VENT RATE (KT-FT)     12156                     36108        
DISPERSION            Poor                      Marginal     
DSI                   STBL         STBL         STBL         
LAL                   1            1            1            
HAINES INDEX          4            4            5            
ADI EARLY             11 POOR      4 VERY POOR  26 FAIR      
ADI LATE              15 GEN POOR  10 POOR      37 FAIR      
MAX LVORI EARLY       7            5            6            
MAX LVORI LATE        4            6            3            

REMARKS...ADI IS ATMOSPHERIC DISPERSION INDEX BY LAVDAS.        
LVORI IS LOW VISIBILITY OCCURRENCE RISK INDEX.

.THURSDAY...Cloudy with rain showers. Lows in the lower 40s.
Highs in the lower 50s. South winds around 5 mph. 
.FRIDAY...Rain showers. Lows in the lower 40s. Highs in the mid
40s. Northeast winds around 5 mph. 
.SATURDAY...Mostly cloudy. A 50 percent chance of rain showers.
Lows around 30. Highs in the lower 40s. Southwest winds 5 to
15 mph. 
.SUNDAY...Mostly cloudy. A 30 percent chance of rain showers.
Lows around 30. Highs in the mid 40s. Southwest winds 5 to
10 mph. 
.MONDAY...Partly cloudy. Lows in the lower 30s. Highs in the mid
40s. Southwest winds 5 to 10 mph. 

SPC's Fire Weather Web Tool (Excellent!), SPC's Fire Weather Outlooks, NWS Fire Weather WEB, Fire Danger Class Map,
Keetch-Byram Drought Index, ROMAN Web, Haines Index ,
WFAS's 10-hr Dead Fuel Moist., WFAS's 100-hr Dead Fuel Moist., Probablity of Ignition, Visual blackness Map, Palmer Drought Index, HPC's Rainfall Forecast Maps


Hazardous Weather Outlook For SCOTT County, Kentucky
338 AM EST Tue Dec 18 2018 /238 AM CST Tue Dec 18 2018/

 DAY ONE  Today and Tonight.

No hazardous weather is expected at this time.

 DAYS TWO THROUGH SEVEN  Wednesday through Monday.

No hazardous weather is expected at this time.

 SPOTTER INFORMATION STATEMENT  

Spotter activation is not expected at this time.

Latest SCOTT County, Kentucky Watches, Warnings and Advisories.
Additional Drought Info.: UKAWC Drought Page, Kentucky Drought Watch


7-Day Forecast For SCOTT County, KY

THIS AFTERNOON
Partly cloudy late in the morning then becoming mostly sunny. Highs in the mid 40s. East winds up to 5 mph.

TONIGHT
Mostly clear. Lows around 30. Southeast winds up to 5 mph.

WEDNESDAY
Partly cloudy. Highs in the mid 50s. South winds 5 to 10 mph.

WEDNESDAY NIGHT
Mostly cloudy with a 50 percent chance of showers. Lows in the lower 40s. South winds 5 to 10 mph.

THURSDAY
Showers. Highs in the lower 50s. East winds around 5 mph. Chance of showers 80 percent.

THURSDAY NIGHT
Showers. Lows around 40. Chance of showers 90 percent.

FRIDAY
Rain showers. Highs in the mid 40s. Chance of showers 90 percent.

FRIDAY NIGHT
Mostly cloudy with a 40 percent chance of rain showers. Lows around 30.

SATURDAY
Partly cloudy. Highs in the lower 40s.

SATURDAY NIGHT
Partly cloudy. Lows around 30.

SUNDAY
Partly cloudy with a 30 percent chance of rain showers. Highs in the mid 40s.

SUNDAY NIGHT
Partly cloudy with a 20 percent chance of rain showers. Lows in the lower 30s.

MONDAY
Partly cloudy. Highs in the mid 40s.

Ag Weather Center, Department of Biosystems & Agricultural Engineering, University of Kentucky